Weather History for KWJF - August, 2013

Change the Weather History Date:

Monday, August 26, 2013

  Actual Average Record
Temperature  
Mean Temperature 77 °F 79 °F  
Max Temperature 93 °F 96 °F 106 °F (2001)
Min Temperature 60 °F 63 °F 47 °F (1963)
Degree Days  
Heating Degree Days 0    
Month to date heating degree days 0  
Since 1 June heating degree days 0  
Since 1 July heating degree days 0  
Cooling Degree Days 12    
Month to date cooling degree days 426  
Year to date cooling degree days 1778  
Since 1 June cooling degree days 1520  
Growing Degree Days 28 (Base 50)    
Moisture  
Dew Point 49 °F    
Average Humidity 39    
Maximum Humidity 60    
Minimum Humidity 17    
Precipitation  
Precipitation 0.00 in 0.00 in 0.00 in (2015)
Month to date precipitation T 0.08  
Year to date precipitation 1.12 5.08  
Since 1 July precipitation 0.02 0.17  
Snow  
Snow 0.00 in - 0.00 in ()
Month to date snowfall 0.0  
Since 1 June snowfall 0.0  
Since 1 July snowfall 0.0  
Snow Depth 0.00 in    
Sea Level Pressure  
Sea Level Pressure 29.93 in    
Wind  
Wind Speed 6 mph (NNW)    
Max Wind Speed 17 mph    
Max Gust Speed 24 mph    
Visibility 10 miles    
Events      
T = Trace of Precipitation, MM = Missing Value Source: NWS Daily Summary

Daily Weather History Graph

Daily Weather History Graph

Search for Another Location

Airport or City:

Trip Planner

Search our weather history database for the weather conditions in past years. The results will help you decide how hot, cold, wet, or windy it might be!

Date:

Astronomy

Aug. 26, 2013 Rise Set
Actual Time 6:21 AM PDT 7:26 PM PDT
Civil Twilight 5:55 AM PDT 7:52 PM PDT
Nautical Twilight 5:24 AM PDT 8:23 PM PDT
Astronomical Twilight 4:52 AM PDT 8:55 PM PDT
Moon 10:58 PM PDT 12:11 PM PDT
Length of Visible Light 13h 57m
Length of Day
13h 05m
Waning Gibbous, 65% of the Moon is Illuminated
Aug 26
Waning Gibbous
Aug 28
Last Quarter
Sep 5
New
Sep 12
First Quarter
Sep 19
Full

Hourly Weather History & Observations

Time (PDT) Temp. Heat Index Dew Point Humidity Pressure Visibility Wind Dir Wind Speed Gust Speed Precip Events Conditions
12:56 AM 73.9 °F - 27.0 °F 18% 29.94 in 10.0 mi SSW 3.5 mph - N/A   Clear
1:56 AM 66.0 °F - 25.0 °F 21% 29.94 in 10.0 mi WNW 4.6 mph - N/A   Clear
2:56 AM 63.0 °F - 28.0 °F 27% 29.95 in 10.0 mi North 6.9 mph - N/A   Clear
3:56 AM 64.9 °F - 30.0 °F 27% 29.96 in 10.0 mi NNW 3.5 mph - N/A   Clear
4:56 AM 62.1 °F - 28.9 °F 29% 29.97 in 10.0 mi Calm Calm - N/A   Clear
5:56 AM 62.1 °F - 28.0 °F 28% 29.98 in 10.0 mi West 6.9 mph - N/A   Clear
6:56 AM 63.0 °F - 28.9 °F 28% 30.00 in 10.0 mi WNW 3.5 mph - N/A   Clear
7:56 AM 71.1 °F - 46.9 °F 42% 30.00 in 10.0 mi NNW 4.6 mph - N/A   Clear
8:56 AM 75.9 °F - 60.1 °F 58% 30.00 in 10.0 mi Calm Calm - N/A   Clear
9:56 AM 79.0 °F - 63.0 °F 58% 29.99 in 10.0 mi East 5.8 mph - N/A   Clear
10:56 AM 82.0 °F 82.7 °F 61.0 °F 49% 29.98 in 10.0 mi NE 4.6 mph - N/A   Clear
11:56 AM 87.1 °F 86.7 °F 60.1 °F 40% 29.95 in 10.0 mi NE 9.2 mph - N/A   Clear
12:56 PM 88.0 °F 86.9 °F 57.9 °F 36% 29.93 in 10.0 mi East 10.4 mph - N/A   Mostly Cloudy
1:56 PM 90.0 °F 88.6 °F 57.0 °F 33% 29.91 in 10.0 mi Variable 6.9 mph - N/A   Mostly Cloudy
2:56 PM 90.0 °F 88.6 °F 57.0 °F 33% 29.88 in 10.0 mi NE 8.1 mph - N/A   Partly Cloudy
3:56 PM 93.0 °F 91.4 °F 55.9 °F 29% 29.86 in 10.0 mi East 11.5 mph 18.4 mph N/A   Scattered Clouds
4:56 PM 91.9 °F 90.8 °F 57.9 °F 32% 29.86 in 10.0 mi East 12.7 mph 21.9 mph N/A   Scattered Clouds
5:56 PM 84.9 °F 84.8 °F 60.1 °F 43% 29.88 in 10.0 mi SW 10.4 mph - N/A   Scattered Clouds
6:56 PM 84.0 °F 83.8 °F 59.0 °F 43% 29.87 in 10.0 mi SSW 8.1 mph - N/A   Clear
7:56 PM 82.0 °F 82.0 °F 57.9 °F 44% 29.88 in 10.0 mi WSW 8.1 mph - N/A   Clear
8:56 PM 79.0 °F - 55.0 °F 44% 29.90 in 10.0 mi WNW 4.6 mph - N/A   Clear
9:56 PM 78.1 °F - 55.0 °F 45% 29.91 in 10.0 mi West 4.6 mph - N/A   Clear
10:56 PM 73.9 °F - 53.1 °F 48% 29.91 in 10.0 mi NW 3.5 mph - N/A   Clear
11:56 PM 73.9 °F - 55.9 °F 53% 29.91 in 10.0 mi North 6.9 mph - N/A   Clear